Tracking 35237 objects as of 5-Sep-2026
HD Live streaming from Space Station
objects crossing your sky now

STARLINK-34983

Track STARLINK-34983 now!
10-day predictions
STARLINK-34983 is classified as:


NORAD ID: 65411
Int'l Code: 2025-192H
Launch date: August 31, 2025
Source: United States (US)
Launch site: AIR FORCE EASTERN TEST RANGE (AFETR)
Your satellite tracking list
Your tracking list is empty




NASA's NSSDC Master Catalog

Two Line Element Set (TLE):
1 65411U 25192H   26247.62966194  .00020265  00000-0  66247-3 0  9993
2 65411  53.1592 119.5711 0000936  58.6712 301.4380 15.31726802 56809
Source of the keplerian elements: AFSPC